Hourly Weather Puławy

Today, 10 July, Friday

Time Temperature Precipitation Wind Pressure Humidity
00:00 +16°C° 0.1 mm 3 mps 749 mmHg 87%
01:00 +16°C° 0 mm 3 mps 749 mmHg 96%
02:00 +16°C° 0 mm 3 mps 749 mmHg 96%
03:00 +16°C° 0 mm 3 mps 748 mmHg 95%
04:00 +16°C° 0 mm 3 mps 748 mmHg 95%
05:00 +18°C° 0 mm 4 mps 748 mmHg 91%
06:00 +19°C° 0 mm 4 mps 748 mmHg 88%
07:00 +21°C° 0 mm 5 mps 748 mmHg 84%
08:00 +23°C° 0 mm 5 mps 748 mmHg 78%
09:00 +25°C° 0 mm 5 mps 748 mmHg 73%
10:00 +27°C° 0 mm 5 mps 748 mmHg 67%
11:00 +27°C° 0.2 mm 5 mps 748 mmHg 65%
12:00 +28°C° 0.2 mm 6 mps 747 mmHg 63%
13:00 +29°C° 0.2 mm 6 mps 747 mmHg 61%
14:00 +29°C° 0.2 mm 5 mps 747 mmHg 61%
15:00 +30°C° 0.2 mm 5 mps 747 mmHg 62%
16:00 +30°C° 0.2 mm 4 mps 746 mmHg 63%
17:00 +29°C° 0 mm 4 mps 746 mmHg 66%
18:00 +27°C° 0 mm 4 mps 746 mmHg 70%
19:00 +26°C° 0 mm 3 mps 746 mmHg 74%
20:00 +25°C° 0.2 mm 4 mps 746 mmHg 76%
21:00 +23°C° 0.2 mm 4 mps 747 mmHg 78%
22:00 +22°C° 0.2 mm 4 mps 747 mmHg 80%
23:00 +21°C° 0.2 mm 4 mps 747 mmHg 83%

Tomorrow, 11 July, Saturday

Time Temperature Precipitation Wind Pressure Humidity
00:00 +20°C° 0.2 mm 3 mps 748 mmHg 86%
01:00 +19°C° 0.2 mm 2 mps 748 mmHg 90%
02:00 +19°C° 0.3 mm 2 mps 748 mmHg 92%
03:00 +19°C° 0.3 mm 2 mps 749 mmHg 93%
04:00 +18°C° 0.3 mm 2 mps 749 mmHg 95%
05:00 +18°C° 0 mm 3 mps 750 mmHg 93%
06:00 +18°C° 0 mm 3 mps 750 mmHg 90%
07:00 +18°C° 0 mm 4 mps 751 mmHg 87%
08:00 +18°C° 0 mm 4 mps 751 mmHg 81%
09:00 +19°C° 0 mm 4 mps 752 mmHg 76%
10:00 +19°C° 0 mm 3 mps 752 mmHg 70%
11:00 +19°C° 0 mm 4 mps 752 mmHg 72%
12:00 +17°C° 0 mm 5 mps 752 mmHg 75%
13:00 +16°C° 0 mm 5 mps 752 mmHg 78%
14:00 +15°C° 0.1 mm 5 mps 753 mmHg 79%
15:00 +14°C° 0.1 mm 5 mps 753 mmHg 81%
16:00 +13°C° 0.1 mm 5 mps 753 mmHg 82%
17:00 +13°C° 1.1 mm 5 mps 753 mmHg 86%
18:00 +12°C° 1.1 mm 4 mps 754 mmHg 90%
19:00 +11°C° 1.1 mm 3 mps 754 mmHg 94%
20:00 +11°C° 0.8 mm 3 mps 754 mmHg 95%
21:00 +12°C° 0.8 mm 2 mps 754 mmHg 95%
22:00 +12°C° 0.8 mm 2 mps 754 mmHg 96%
23:00 +12°C° 0.8 mm 2 mps 754 mmHg 96%

Day after tomorrow, 12 July, Sunday

Time Temperature Precipitation Wind Pressure Humidity
00:00 +12°C° 0.8 mm 2 mps 754 mmHg 96%
01:00 +12°C° 0.8 mm 2 mps 754 mmHg 96%
02:00 +12°C° 1.1 mm 2 mps 754 mmHg 96%
03:00 +12°C° 1.1 mm 2 mps 754 mmHg 96%
04:00 +12°C° 1.1 mm 2 mps 754 mmHg 96%
05:00 +13°C° 0.2 mm 2 mps 754 mmHg 94%
06:00 +13°C° 0.2 mm 2 mps 754 mmHg 91%
07:00 +14°C° 0.2 mm 2 mps 754 mmHg 88%
08:00 +15°C° 0.1 mm 2 mps 755 mmHg 84%
09:00 +16°C° 0.1 mm 2 mps 755 mmHg 79%
10:00 +17°C° 0.1 mm 2 mps 755 mmHg 74%
11:00 +18°C° 0.2 mm 2 mps 755 mmHg 70%
12:00 +19°C° 0.2 mm 3 mps 755 mmHg 65%
13:00 +20°C° 0.2 mm 3 mps 755 mmHg 61%
14:00 +20°C° 0.3 mm 3 mps 754 mmHg 63%
15:00 +19°C° 0.3 mm 4 mps 754 mmHg 66%
16:00 +19°C° 0.3 mm 4 mps 754 mmHg 68%
17:00 +18°C° 0.1 mm 4 mps 754 mmHg 72%
18:00 +17°C° 0.1 mm 3 mps 754 mmHg 75%
19:00 +16°C° 0.1 mm 2 mps 754 mmHg 78%
20:00 +15°C° 0 mm 2 mps 754 mmHg 80%
21:00 +14°C° 0 mm 2 mps 754 mmHg 82%
22:00 +13°C° 0 mm 2 mps 754 mmHg 84%
23:00 +12°C° 0 mm 2 mps 754 mmHg 86%

13 July, Monday

Time Temperature Precipitation Wind Pressure Humidity
00:00 +12°C° 0 mm 2 mps 754 mmHg 87%
01:00 +10°C° 0 mm 2 mps 754 mmHg 88%
02:00 +10°C° 0 mm 2 mps 754 mmHg 89%
03:00 +10°C° 0 mm 2 mps 754 mmHg 90%
04:00 +9°C° 0 mm 2 mps 754 mmHg 91%
05:00 +11°C° 0 mm 3 mps 754 mmHg 87%
06:00 +12°C° 0 mm 3 mps 754 mmHg 83%
07:00 +14°C° 0 mm 4 mps 754 mmHg 79%
08:00 +15°C° 0 mm 4 mps 754 mmHg 75%
09:00 +17°C° 0 mm 4 mps 754 mmHg 70%
10:00 +17°C° 0 mm 5 mps 754 mmHg 65%
11:00 +19°C° 0.1 mm 5 mps 753 mmHg 64%
12:00 +19°C° 0.1 mm 5 mps 753 mmHg 63%
13:00 +20°C° 0.1 mm 5 mps 753 mmHg 61%
14:00 +20°C° 0 mm 4 mps 752 mmHg 61%
15:00 +20°C° 0 mm 4 mps 752 mmHg 60%
16:00 +21°C° 0 mm 3 mps 752 mmHg 59%
17:00 +19°C° 0 mm 3 mps 752 mmHg 66%
18:00 +18°C° 0 mm 3 mps 752 mmHg 73%
19:00 +17°C° 0 mm 3 mps 752 mmHg 80%
20:00 +16°C° 0 mm 3 mps 752 mmHg 84%
21:00 +14°C° 0 mm 3 mps 752 mmHg 87%
22:00 +14°C° 0 mm 2 mps 752 mmHg 91%
23:00 +13°C° 0 mm 2 mps 752 mmHg 92%

14 July, Tuesday

Time Temperature Precipitation Wind Pressure Humidity
00:00 +13°C° 0 mm 2 mps 752 mmHg 93%
01:00 +13°C° 0 mm 2 mps 752 mmHg 94%
02:00 +12°C° 0 mm 2 mps 752 mmHg 95%
03:00 +12°C° 0 mm 2 mps 752 mmHg 95%
04:00 +12°C° 0 mm 2 mps 751 mmHg 96%
05:00 +13°C° 0 mm 2 mps 751 mmHg 91%
06:00 +15°C° 0 mm 2 mps 752 mmHg 86%
07:00 +16°C° 0 mm 2 mps 752 mmHg 80%
08:00 +18°C° 0 mm 2 mps 752 mmHg 75%
09:00 +19°C° 0 mm 2 mps 752 mmHg 71%
10:00 +20°C° 0 mm 2 mps 751 mmHg 66%
11:00 +20°C° 0.1 mm 2 mps 751 mmHg 64%
12:00 +21°C° 0.1 mm 2 mps 751 mmHg 62%
13:00 +23°C° 0.1 mm 2 mps 751 mmHg 60%
14:00 +21°C° 0.3 mm 2 mps 751 mmHg 63%
15:00 +21°C° 0.3 mm 2 mps 750 mmHg 65%
16:00 +21°C° 0.3 mm 2 mps 750 mmHg 67%
17:00 +20°C° 0.3 mm 2 mps 750 mmHg 72%
18:00 +20°C° 0.3 mm 1 mps 750 mmHg 77%
19:00 +19°C° 0.3 mm 1 mps 750 mmHg 82%
20:00 +18°C° 0 mm 1 mps 750 mmHg 84%
21:00 +16°C° 0 mm 1 mps 750 mmHg 86%
22:00 +15°C° 0 mm 1 mps 750 mmHg 88%
23:00 +14°C° 0 mm 1 mps 750 mmHg 89%

15 July, Wednesday

Time Temperature Precipitation Wind Pressure Humidity
00:00 +14°C° 0 mm 1 mps 750 mmHg 90%
01:00 +14°C° 0 mm 1 mps 750 mmHg 91%
02:00 +14°C° 0 mm 1 mps 750 mmHg 92%
03:00 +13°C° 0 mm 1 mps 750 mmHg 93%
04:00 +13°C° 0 mm 1 mps 750 mmHg 93%
05:00 +15°C° 0 mm 2 mps 750 mmHg 90%
06:00 +16°C° 0 mm 2 mps 750 mmHg 87%
07:00 +18°C° 0 mm 2 mps 750 mmHg 83%
08:00 +19°C° 0.1 mm 2 mps 750 mmHg 78%
09:00 +21°C° 0.1 mm 3 mps 749 mmHg 72%
10:00 +22°C° 0.1 mm 3 mps 749 mmHg 66%
11:00 +24°C° 0.2 mm 3 mps 749 mmHg 64%
12:00 +24°C° 0.2 mm 3 mps 749 mmHg 61%
13:00 +25°C° 0.2 mm 3 mps 749 mmHg 58%
14:00 +25°C° 0.4 mm 3 mps 748 mmHg 60%
15:00 +25°C° 0.4 mm 3 mps 748 mmHg 61%
16:00 +25°C° 0.4 mm 3 mps 748 mmHg 62%
17:00 +24°C° 0.3 mm 3 mps 748 mmHg 67%
18:00 +21°C° 0.3 mm 2 mps 747 mmHg 73%
19:00 +20°C° 0.3 mm 2 mps 747 mmHg 78%
20:00 +19°C° 0 mm 2 mps 747 mmHg 81%
21:00 +18°C° 0 mm 3 mps 747 mmHg 83%
22:00 +17°C° 0 mm 3 mps 747 mmHg 85%
23:00 +17°C° 0 mm 3 mps 747 mmHg 86%
Show more